Time,TemperatureF,DewpointF,PressureIn,WindDirection,WindDirectionDegrees,WindSpeedMPH,WindSpeedGustMPH,Humidity,HourlyPrecipIn,Conditions,Clouds,dailyrainin,SolarRadiationWatts/m^2,SoftwareType,DateUTC
2013-11-07 00:01:00,55.2,53.8,30.05,WNW,291,7.0,14.0,95,0.05,,,0.24,0.0,meteohub,2013-11-07 05:01:00,
2013-11-07 00:02:00,55.2,53.8,30.05,NE,40,3.0,14.0,95,0.05,,,0.24,0.0,meteohub,2013-11-07 05:02:00,
2013-11-07 00:03:00,55.0,53.6,30.05,WNW,283,4.0,14.0,95,0.05,,,0.24,0.0,meteohub,2013-11-07 05:03:00,
2013-11-07 00:05:00,54.9,53.4,30.06,NW,308,3.0,14.0,95,0.06,,,0.24,0.0,meteohub,2013-11-07 05:05:00,
2013-11-07 00:06:00,54.9,53.4,30.06,NW,325,4.0,14.0,95,0.06,,,0.24,0.0,meteohub,2013-11-07 05:06:00,
2013-11-07 00:11:00,54.1,52.5,30.06,WNW,301,5.0,13.0,94,0.05,,,0.25,0.0,meteohub,2013-11-07 05:11:00,
2013-11-07 00:16:00,53.1,51.1,30.07,NNW,346,5.0,12.0,93,0.05,,,0.25,0.0,meteohub,2013-11-07 05:16:00,
2013-11-07 00:21:00,52.2,50.5,30.07,North,358,2.0,12.0,94,0.05,,,0.25,0.0,meteohub,2013-11-07 05:21:00,
2013-11-07 00:26:00,51.6,50.0,30.08,NW,309,5.0,11.0,94,0.04,,,0.25,0.0,meteohub,2013-11-07 05:26:00,
2013-11-07 00:31:00,51.1,49.5,30.09,NNW,346,6.0,12.0,94,0.04,,,0.25,0.0,meteohub,2013-11-07 05:31:00,
2013-11-07 00:36:00,50.7,49.3,30.09,NNE,17,5.0,12.0,95,0.04,,,0.25,0.0,meteohub,2013-11-07 05:36:00,
2013-11-07 00:41:00,50.2,48.6,30.10,NW,315,4.0,12.0,94,0.04,,,0.26,0.0,meteohub,2013-11-07 05:41:00,
2013-11-07 00:46:00,49.6,48.2,30.10,NNW,333,7.0,11.0,95,0.03,,,0.26,0.0,meteohub,2013-11-07 05:46:00,
2013-11-07 00:52:00,49.3,47.7,30.10,West,262,4.0,11.0,94,0.02,,,0.26,0.0,meteohub,2013-11-07 05:52:00,
2013-11-07 00:57:00,48.7,47.1,30.12,NNW,342,8.0,15.0,94,0.02,,,0.26,0.0,meteohub,2013-11-07 05:57:00,
2013-11-07 01:02:00,48.6,46.9,30.12,NW,304,6.0,16.0,94,0.02,,,0.26,0.0,meteohub,2013-11-07 06:02:00,
2013-11-07 01:07:00,48.2,46.8,30.11,NW,311,9.0,16.0,95,0.02,,,0.27,0.0,meteohub,2013-11-07 06:07:00,
2013-11-07 01:12:00,47.8,46.4,30.12,NW,306,7.0,16.0,95,0.03,,,0.28,0.0,meteohub,2013-11-07 06:12:00,
2013-11-07 01:17:00,47.7,46.2,30.11,NNW,338,4.0,13.0,95,0.04,,,0.29,0.0,meteohub,2013-11-07 06:17:00,
2013-11-07 01:22:00,47.5,46.0,30.12,NNW,334,5.0,13.0,95,0.04,,,0.29,0.0,meteohub,2013-11-07 06:22:00,
2013-11-07 01:27:00,47.5,46.4,30.13,WNW,290,3.0,13.0,96,0.04,,,0.29,0.0,meteohub,2013-11-07 06:27:00,
2013-11-07 01:32:00,47.5,46.4,30.13,NW,319,5.0,12.0,96,0.04,,,0.29,0.0,meteohub,2013-11-07 06:32:00,
2013-11-07 01:37:00,47.1,45.7,30.12,West,281,9.0,12.0,95,0.04,,,0.29,0.0,meteohub,2013-11-07 06:37:00,
2013-11-07 01:42:00,46.8,45.1,30.13,NNW,331,4.0,14.0,94,0.04,,,0.30,0.0,meteohub,2013-11-07 06:42:00,
2013-11-07 01:47:00,46.4,44.8,30.13,WNW,286,4.0,14.0,94,0.04,,,0.30,0.0,meteohub,2013-11-07 06:47:00,
2013-11-07 01:52:00,46.2,44.2,30.14,NNW,327,5.0,14.0,93,0.04,,,0.30,0.0,meteohub,2013-11-07 06:52:00,
2013-11-07 01:57:00,46.0,44.4,30.15,WNW,289,3.0,13.0,94,0.04,,,0.30,0.0,meteohub,2013-11-07 06:57:00,
2013-11-07 02:02:00,45.7,43.7,30.14,NNW,342,2.0,14.0,93,0.03,,,0.30,0.0,meteohub,2013-11-07 07:02:00,
2013-11-07 02:07:00,45.7,43.7,30.14,WNW,290,6.0,14.0,93,0.03,,,0.30,0.0,meteohub,2013-11-07 07:07:00,
2013-11-07 02:12:00,45.3,43.7,30.14,NW,310,6.0,14.0,94,0.02,,,0.30,0.0,meteohub,2013-11-07 07:12:00,
2013-11-07 02:17:00,45.1,43.2,30.14,WNW,300,3.0,10.0,93,0.01,,,0.30,0.0,meteohub,2013-11-07 07:17:00,
2013-11-07 02:22:00,45.0,43.3,30.14,NW,306,3.0,16.0,94,0.01,,,0.30,0.0,meteohub,2013-11-07 07:22:00,
2013-11-07 02:27:00,44.8,43.2,30.15,NW,318,8.0,16.0,94,0.01,,,0.30,0.0,meteohub,2013-11-07 07:27:00,
2013-11-07 02:32:00,44.8,43.5,30.14,NW,326,5.0,16.0,95,0.01,,,0.30,0.0,meteohub,2013-11-07 07:32:00,
2013-11-07 02:37:00,44.4,43.2,30.15,WNW,290,6.0,10.0,95,0.01,,,0.31,0.0,meteohub,2013-11-07 07:37:00,
2013-11-07 02:43:00,44.2,43.0,30.16,NNW,337,4.0,13.0,95,0.01,,,0.31,0.0,meteohub,2013-11-07 07:43:00,
2013-11-07 02:48:00,44.2,43.0,30.15,NW,312,4.0,13.0,95,0.02,,,0.32,0.0,meteohub,2013-11-07 07:48:00,
2013-11-07 02:53:00,44.1,42.8,30.15,WNW,286,5.0,10.0,95,0.02,,,0.32,0.0,meteohub,2013-11-07 07:53:00,
2013-11-07 02:58:00,43.9,42.6,30.16,WNW,285,7.0,10.0,95,0.02,,,0.32,0.0,meteohub,2013-11-07 07:58:00,
2013-11-07 03:03:00,43.9,42.6,30.17,NW,321,8.0,10.0,95,0.02,,,0.32,0.0,meteohub,2013-11-07 08:03:00,
2013-11-07 03:08:00,43.9,42.8,30.16,WNW,293,2.0,10.0,96,0.02,,,0.32,0.0,meteohub,2013-11-07 08:08:00,
2013-11-07 03:13:00,43.9,42.8,30.16,NW,308,6.0,10.0,96,0.02,,,0.32,0.0,meteohub,2013-11-07 08:13:00,
2013-11-07 03:18:00,43.7,42.6,30.16,WNW,303,3.0,10.0,96,0.03,,,0.33,0.0,meteohub,2013-11-07 08:18:00,
2013-11-07 03:23:00,43.7,42.6,30.15,North,350,4.0,10.0,96,0.03,,,0.33,0.0,meteohub,2013-11-07 08:23:00,
2013-11-07 03:28:00,43.5,42.3,30.16,NNW,336,4.0,11.0,95,0.03,,,0.33,0.0,meteohub,2013-11-07 08:28:00,
2013-11-07 03:33:00,43.5,42.3,30.17,NNW,344,5.0,11.0,95,0.02,,,0.33,0.0,meteohub,2013-11-07 08:33:00,
2013-11-07 03:38:00,43.3,42.1,30.17,WNW,298,3.0,9.0,95,0.02,,,0.33,0.0,meteohub,2013-11-07 08:38:00,
2013-11-07 03:43:00,43.3,42.1,30.18,NNW,327,8.0,11.0,95,0.02,,,0.33,0.0,meteohub,2013-11-07 08:43:00,
2013-11-07 03:48:00,43.3,42.1,30.17,WNW,298,3.0,13.0,95,0.01,,,0.33,0.0,meteohub,2013-11-07 08:48:00,
2013-11-07 03:53:00,43.2,41.9,30.17,NW,309,5.0,13.0,95,0.01,,,0.33,0.0,meteohub,2013-11-07 08:53:00,
2013-11-07 03:58:00,43.2,41.9,30.17,WNW,290,6.0,13.0,95,0.01,,,0.33,0.0,meteohub,2013-11-07 08:58:00,
2013-11-07 04:04:00,43.2,41.9,30.16,WNW,302,7.0,11.0,95,0.01,,,0.33,0.0,meteohub,2013-11-07 09:04:00,
2013-11-07 04:09:00,43.0,41.4,30.17,North,0,5.0,11.0,94,0.01,,,0.33,0.0,meteohub,2013-11-07 09:09:00,
2013-11-07 04:14:00,43.0,41.7,30.17,NW,315,9.0,11.0,95,0.00,,,0.33,0.0,meteohub,2013-11-07 09:14:00,
2013-11-07 04:19:00,43.0,41.7,30.17,WNW,293,3.0,11.0,95,0.00,,,0.33,0.0,meteohub,2013-11-07 09:19:00,
2013-11-07 04:24:00,43.0,41.7,30.18,WNW,294,11.0,11.0,95,0.00,,,0.33,0.0,meteohub,2013-11-07 09:24:00,
2013-11-07 04:29:00,43.0,41.7,30.18,NNW,333,3.0,11.0,95,0.00,,,0.33,0.0,meteohub,2013-11-07 09:29:00,
2013-11-07 04:34:00,43.0,41.7,30.19,WNW,292,5.0,13.0,95,0.01,,,0.34,0.0,meteohub,2013-11-07 09:34:00,
2013-11-07 04:39:00,42.8,41.5,30.19,NNW,329,2.0,13.0,95,0.01,,,0.34,0.0,meteohub,2013-11-07 09:39:00,
2013-11-07 04:44:00,42.8,41.5,30.19,WNW,300,6.0,13.0,95,0.01,,,0.34,0.0,meteohub,2013-11-07 09:44:00,
2013-11-07 04:49:00,42.8,41.5,30.19,NW,313,4.0,13.0,95,0.01,,,0.34,0.0,meteohub,2013-11-07 09:49:00,
2013-11-07 04:54:00,42.8,41.5,30.20,NNE,15,4.0,13.0,95,0.01,,,0.34,0.0,meteohub,2013-11-07 09:54:00,
2013-11-07 04:59:00,42.8,41.2,30.20,WNW,290,3.0,13.0,94,0.01,,,0.34,0.0,meteohub,2013-11-07 09:59:00,
2013-11-07 05:04:00,42.8,41.2,30.20,North,356,3.0,11.0,94,0.01,,,0.34,0.0,meteohub,2013-11-07 10:04:00,
2013-11-07 05:09:00,42.8,41.2,30.20,NW,318,5.0,10.0,94,0.01,,,0.34,0.0,meteohub,2013-11-07 10:09:00,
2013-11-07 05:14:00,42.8,41.2,30.20,NW,305,5.0,10.0,94,0.01,,,0.34,0.0,meteohub,2013-11-07 10:14:00,
2013-11-07 05:20:00,42.8,41.2,30.21,NW,319,2.0,10.0,94,0.01,,,0.34,0.0,meteohub,2013-11-07 10:20:00,
2013-11-07 05:25:00,42.8,41.2,30.21,WNW,302,5.0,10.0,94,0.01,,,0.34,0.0,meteohub,2013-11-07 10:25:00,
2013-11-07 05:30:00,42.8,41.2,30.21,NNW,344,3.0,10.0,94,0.00,,,0.34,0.0,meteohub,2013-11-07 10:30:00,
2013-11-07 05:35:00,42.8,40.6,30.22,NNW,341,4.0,10.0,92,0.00,,,0.34,0.0,meteohub,2013-11-07 10:35:00,
2013-11-07 05:40:00,42.8,40.6,30.21,NW,315,5.0,10.0,92,0.00,,,0.34,0.0,meteohub,2013-11-07 10:40:00,
2013-11-07 05:45:00,42.6,40.5,30.22,WNW,302,11.0,11.0,92,0.00,,,0.34,0.0,meteohub,2013-11-07 10:45:00,
2013-11-07 05:50:00,42.6,40.5,30.22,NNW,340,6.0,11.0,92,0.00,,,0.34,0.0,meteohub,2013-11-07 10:50:00,
2013-11-07 05:55:00,42.6,40.5,30.22,WNW,298,2.0,11.0,92,0.00,,,0.34,0.0,meteohub,2013-11-07 10:55:00,
2013-11-07 06:00:00,42.6,40.5,30.22,NW,311,6.0,11.0,92,0.00,,,0.34,0.0,meteohub,2013-11-07 11:00:00,
2013-11-07 06:05:00,42.6,40.5,30.23,NNW,327,1.0,11.0,92,0.00,,,0.34,0.0,meteohub,2013-11-07 11:05:00,
2013-11-07 06:10:00,42.6,40.1,30.23,NW,321,2.0,11.0,91,0.00,,,0.34,0.0,meteohub,2013-11-07 11:10:00,
2013-11-07 06:16:00,42.6,40.1,30.24,NNW,329,1.0,8.0,91,0.00,,,0.34,0.0,meteohub,2013-11-07 11:16:00,
2013-11-07 06:21:00,42.6,40.1,30.24,NW,306,6.0,8.0,91,0.00,,,0.34,0.0,meteohub,2013-11-07 11:21:00,
2013-11-07 06:26:00,42.4,39.7,30.25,WNW,300,5.0,9.0,90,0.00,,,0.34,0.0,meteohub,2013-11-07 11:26:00,
2013-11-07 06:31:00,42.4,39.7,30.24,NW,307,5.0,9.0,90,0.00,,,0.34,0.0,meteohub,2013-11-07 11:31:00,
2013-11-07 06:35:00,42.4,39.7,30.24,North,0,3.0,9.0,90,0.00,,,0.34,0.0,meteohub,2013-11-07 11:35:00,
2013-11-07 06:40:00,42.4,39.7,30.25,NW,306,3.0,8.0,90,0.00,,,0.34,0.0,meteohub,2013-11-07 11:40:00,
2013-11-07 06:45:00,42.4,39.7,30.25,North,1,1.0,7.0,90,0.00,,,0.34,0.0,meteohub,2013-11-07 11:45:00,
2013-11-07 06:50:00,42.4,39.4,30.25,West,261,5.0,8.0,89,0.00,,,0.34,0.0,meteohub,2013-11-07 11:50:00,
2013-11-07 06:55:00,42.4,39.4,30.25,WNW,293,3.0,10.0,89,0.00,,,0.34,0.0,meteohub,2013-11-07 11:55:00,
2013-11-07 07:00:00,42.4,39.7,30.25,NW,315,5.0,10.0,90,0.00,,,0.34,0.0,meteohub,2013-11-07 12:00:00,
2013-11-07 07:05:00,42.3,39.2,30.25,NNW,343,5.0,10.0,89,0.00,,,0.34,0.0,meteohub,2013-11-07 12:05:00,
2013-11-07 07:10:00,42.3,39.2,30.25,WNW,290,1.0,9.0,89,0.00,,,0.34,0.0,meteohub,2013-11-07 12:10:00,
2013-11-07 07:15:00,42.3,39.0,30.25,NE,40,2.0,9.0,88,0.00,,,0.34,0.0,meteohub,2013-11-07 12:15:00,
2013-11-07 07:21:00,42.3,39.0,30.26,West,281,2.0,9.0,88,0.00,,,0.34,5.0,meteohub,2013-11-07 12:21:00,
2013-11-07 07:26:00,42.3,39.0,30.26,NNW,348,4.0,9.0,88,0.00,,,0.34,11.0,meteohub,2013-11-07 12:26:00,
2013-11-07 07:31:00,42.1,38.5,30.27,NNW,328,4.0,9.0,87,0.00,,,0.34,14.0,meteohub,2013-11-07 12:31:00,
2013-11-07 07:36:00,42.1,38.8,30.27,NW,321,3.0,9.0,88,0.00,,,0.34,16.0,meteohub,2013-11-07 12:36:00,
2013-11-07 07:41:00,42.1,39.0,30.27,West,269,4.0,9.0,89,0.00,,,0.34,25.0,meteohub,2013-11-07 12:41:00,
2013-11-07 07:46:00,42.1,39.0,30.27,NNW,333,3.0,8.0,89,0.00,,,0.34,25.0,meteohub,2013-11-07 12:46:00,
2013-11-07 07:51:00,42.1,39.0,30.28,WNW,296,6.0,8.0,89,0.00,,,0.34,28.0,meteohub,2013-11-07 12:51:00,
2013-11-07 07:56:00,41.7,38.7,30.29,WNW,298,6.0,11.0,89,0.00,,,0.34,79.0,meteohub,2013-11-07 12:56:00,
2013-11-07 08:01:00,41.7,39.0,30.30,North,358,6.0,11.0,90,0.00,,,0.34,42.0,meteohub,2013-11-07 13:01:00,
2013-11-07 08:06:00,41.5,38.8,30.30,NNW,329,3.0,11.0,90,0.00,,,0.34,33.0,meteohub,2013-11-07 13:06:00,
2013-11-07 08:11:00,41.5,38.8,30.30,West,280,4.0,10.0,90,0.00,,,0.34,33.0,meteohub,2013-11-07 13:11:00,
2013-11-07 08:16:00,41.2,38.5,30.31,WNW,298,2.0,10.0,90,0.00,,,0.34,39.0,meteohub,2013-11-07 13:16:00,
2013-11-07 08:21:00,41.2,38.8,30.31,WNW,297,3.0,9.0,91,0.00,,,0.34,39.0,meteohub,2013-11-07 13:21:00,
2013-11-07 08:26:00,41.0,38.7,30.31,NNE,17,5.0,9.0,91,0.00,,,0.34,49.0,meteohub,2013-11-07 13:26:00,
2013-11-07 08:31:00,41.2,38.8,30.31,WNW,292,2.0,8.0,91,0.00,,,0.34,155.0,meteohub,2013-11-07 13:31:00,
2013-11-07 08:37:00,41.4,39.0,30.32,NW,320,3.0,11.0,91,0.00,,,0.34,179.0,meteohub,2013-11-07 13:37:00,
2013-11-07 08:42:00,41.4,39.0,30.32,NW,321,5.0,11.0,91,0.00,,,0.34,211.0,meteohub,2013-11-07 13:42:00,
2013-11-07 08:47:00,41.5,38.8,30.32,NNW,339,5.0,11.0,90,0.00,,,0.34,246.0,meteohub,2013-11-07 13:47:00,
2013-11-07 08:52:00,42.1,39.4,30.32,North,358,2.0,11.0,90,0.00,,,0.34,279.0,meteohub,2013-11-07 13:52:00,
2013-11-07 08:57:00,42.4,39.2,30.32,NW,311,6.0,11.0,88,0.00,,,0.34,330.0,meteohub,2013-11-07 13:57:00,
2013-11-07 09:02:00,43.0,39.9,30.32,West,275,5.0,10.0,89,0.00,,,0.34,323.0,meteohub,2013-11-07 14:02:00,
2013-11-07 09:07:00,43.2,39.6,30.32,West,279,4.0,10.0,87,0.00,,,0.34,90.0,meteohub,2013-11-07 14:07:00,
2013-11-07 09:12:00,43.0,39.0,30.32,WNW,284,8.0,10.0,86,0.00,,,0.34,311.0,meteohub,2013-11-07 14:12:00,
2013-11-07 09:17:00,43.0,39.7,30.33,WNW,293,6.0,14.0,88,0.00,,,0.34,369.0,meteohub,2013-11-07 14:17:00,
2013-11-07 09:22:00,43.5,39.9,30.33,NNW,333,4.0,14.0,87,0.00,,,0.34,200.0,meteohub,2013-11-07 14:22:00,
2013-11-07 09:27:00,43.7,39.6,30.33,NNW,327,3.0,14.0,85,0.00,,,0.34,179.0,meteohub,2013-11-07 14:27:00,
2013-11-07 09:32:00,43.5,39.4,30.33,WSW,247,5.0,10.0,85,0.00,,,0.34,149.0,meteohub,2013-11-07 14:32:00,
2013-11-07 09:37:00,43.3,39.4,30.34,WNW,286,5.0,9.0,86,0.00,,,0.34,121.0,meteohub,2013-11-07 14:37:00,
2013-11-07 09:42:00,43.2,39.2,30.34,WNW,300,8.0,10.0,86,0.00,,,0.34,258.0,meteohub,2013-11-07 14:42:00,
2013-11-07 09:47:00,43.2,38.7,30.34,WNW,286,4.0,13.0,84,0.00,,,0.34,172.0,meteohub,2013-11-07 14:47:00,
2013-11-07 09:52:00,43.2,39.6,30.34,WNW,299,6.0,15.0,87,0.00,,,0.34,204.0,meteohub,2013-11-07 14:52:00,
2013-11-07 09:57:00,43.2,39.2,30.34,NW,306,5.0,15.0,86,0.00,,,0.34,169.0,meteohub,2013-11-07 14:57:00,
2013-11-07 10:02:00,43.0,39.0,30.35,West,267,4.0,15.0,86,0.00,,,0.34,204.0,meteohub,2013-11-07 15:02:00,
2013-11-07 10:07:00,42.8,38.7,30.35,WNW,294,7.0,11.0,85,0.00,,,0.34,153.0,meteohub,2013-11-07 15:07:00,
2013-11-07 10:12:00,42.8,38.8,30.35,WNW,296,6.0,11.0,86,0.00,,,0.34,311.0,meteohub,2013-11-07 15:12:00,
2013-11-07 10:17:00,43.2,39.2,30.35,WNW,287,10.0,10.0,86,0.00,,,0.34,195.0,meteohub,2013-11-07 15:17:00,
2013-11-07 10:22:00,43.0,38.8,30.35,WNW,303,5.0,11.0,85,0.00,,,0.34,162.0,meteohub,2013-11-07 15:22:00,
2013-11-07 10:27:00,43.0,38.8,30.35,NW,313,5.0,11.0,85,0.00,,,0.34,192.0,meteohub,2013-11-07 15:27:00,
2013-11-07 10:32:00,43.7,38.5,30.35,WNW,300,2.0,11.0,82,0.00,,,0.34,171.0,meteohub,2013-11-07 15:32:00,
2013-11-07 10:37:00,44.6,39.2,30.35,NNW,337,6.0,10.0,81,0.00,,,0.34,155.0,meteohub,2013-11-07 15:37:00,
2013-11-07 10:42:00,45.5,39.4,30.35,NNE,16,3.0,10.0,79,0.00,,,0.34,570.0,meteohub,2013-11-07 15:42:00,
2013-11-07 10:47:00,46.4,39.6,30.35,NW,322,3.0,10.0,77,0.00,,,0.34,531.0,meteohub,2013-11-07 15:47:00,
2013-11-07 10:52:00,46.6,39.4,30.35,NNW,346,6.0,10.0,76,0.00,,,0.34,515.0,meteohub,2013-11-07 15:52:00,
2013-11-07 10:57:00,46.0,38.8,30.35,West,277,3.0,10.0,76,0.00,,,0.34,130.0,meteohub,2013-11-07 15:57:00,
2013-11-07 11:02:00,44.8,37.9,30.35,WNW,284,3.0,10.0,77,0.00,,,0.34,548.0,meteohub,2013-11-07 16:02:00,
2013-11-07 11:07:00,46.2,40.1,30.35,WNW,294,7.0,10.0,79,0.00,,,0.34,557.0,meteohub,2013-11-07 16:07:00,
2013-11-07 11:12:00,46.4,38.5,30.35,NNW,347,3.0,11.0,74,0.00,,,0.34,515.0,meteohub,2013-11-07 16:12:00,
2013-11-07 11:17:00,46.6,38.7,30.35,NW,304,6.0,11.0,74,0.00,,,0.34,130.0,meteohub,2013-11-07 16:17:00,
2013-11-07 11:22:00,45.9,37.8,30.35,WNW,302,7.0,11.0,73,0.00,,,0.34,554.0,meteohub,2013-11-07 16:22:00,
2013-11-07 11:27:00,46.2,38.7,30.35,WNW,282,7.0,11.0,75,0.00,,,0.34,552.0,meteohub,2013-11-07 16:27:00,
2013-11-07 11:32:00,46.8,37.6,30.35,NW,310,2.0,13.0,70,0.00,,,0.34,555.0,meteohub,2013-11-07 16:32:00,
2013-11-07 11:37:00,47.5,38.1,30.34,NNW,331,4.0,13.0,70,0.00,,,0.34,561.0,meteohub,2013-11-07 16:37:00,
2013-11-07 11:42:00,47.8,38.5,30.34,NNW,338,7.0,9.0,70,0.00,,,0.34,564.0,meteohub,2013-11-07 16:42:00,
2013-11-07 11:47:00,48.0,37.9,30.34,WNW,294,5.0,10.0,68,0.00,,,0.34,561.0,meteohub,2013-11-07 16:47:00,
2013-11-07 11:52:00,47.5,36.3,30.34,NNW,328,4.0,11.0,65,0.00,,,0.34,561.0,meteohub,2013-11-07 16:52:00,
2013-11-07 11:57:00,48.2,36.1,30.33,North,351,4.0,11.0,63,0.00,,,0.34,564.0,meteohub,2013-11-07 16:57:00,
2013-11-07 12:02:00,48.9,38.1,30.33,North,9,7.0,11.0,66,0.00,,,0.34,568.0,meteohub,2013-11-07 17:02:00,
2013-11-07 12:07:00,49.1,37.4,30.33,WNW,301,6.0,10.0,64,0.00,,,0.34,561.0,meteohub,2013-11-07 17:07:00,
2013-11-07 12:12:00,48.4,36.0,30.32,North,6,2.0,10.0,62,0.00,,,0.34,573.0,meteohub,2013-11-07 17:12:00,
2013-11-07 12:17:00,48.9,35.2,30.32,NNE,27,5.0,10.0,59,0.00,,,0.34,571.0,meteohub,2013-11-07 17:17:00,
2013-11-07 12:22:00,49.3,36.3,30.32,NW,323,4.0,12.0,61,0.00,,,0.34,568.0,meteohub,2013-11-07 17:22:00,
2013-11-07 12:27:00,49.1,34.9,30.31,NNE,15,4.0,12.0,58,0.00,,,0.34,570.0,meteohub,2013-11-07 17:27:00,
2013-11-07 12:32:00,49.1,34.5,30.31,WNW,300,8.0,12.0,57,0.00,,,0.34,568.0,meteohub,2013-11-07 17:32:00,
2013-11-07 12:37:00,49.8,34.3,30.31,NNE,17,7.0,11.0,55,0.00,,,0.34,563.0,meteohub,2013-11-07 17:37:00,
2013-11-07 12:42:00,49.6,36.0,30.30,NNW,328,1.0,10.0,59,0.00,,,0.34,564.0,meteohub,2013-11-07 17:42:00,
2013-11-07 12:47:00,49.5,34.3,30.30,NNE,28,5.0,11.0,56,0.00,,,0.34,563.0,meteohub,2013-11-07 17:47:00,
2013-11-07 12:52:00,49.5,34.0,30.30,WNW,303,5.0,11.0,55,0.00,,,0.34,557.0,meteohub,2013-11-07 17:52:00,
2013-11-07 12:57:00,49.8,33.4,30.30,NW,306,2.0,11.0,53,0.00,,,0.34,557.0,meteohub,2013-11-07 17:57:00,
2013-11-07 12:58:00,50.0,34.9,30.30,NNW,329,1.0,11.0,56,0.00,,,0.34,557.0,meteohub,2013-11-07 17:58:00,
2013-11-07 13:03:00,50.9,35.8,30.30,NW,319,5.0,11.0,56,0.00,,,0.34,552.0,meteohub,2013-11-07 18:03:00,
2013-11-07 13:08:00,50.2,33.3,30.30,NNW,334,2.0,10.0,52,0.00,,,0.34,554.0,meteohub,2013-11-07 18:08:00,
2013-11-07 13:13:00,50.4,33.8,30.30,WNW,303,6.0,11.0,53,0.00,,,0.34,547.0,meteohub,2013-11-07 18:13:00,
2013-11-07 13:18:00,50.4,33.8,30.30,NW,315,3.0,11.0,53,0.00,,,0.34,545.0,meteohub,2013-11-07 18:18:00,
2013-11-07 13:23:00,50.7,34.7,30.30,NW,308,5.0,11.0,54,0.00,,,0.34,540.0,meteohub,2013-11-07 18:23:00,
2013-11-07 13:28:00,51.1,32.5,30.30,North,355,4.0,11.0,49,0.00,,,0.34,533.0,meteohub,2013-11-07 18:28:00,
2013-11-07 13:34:00,50.7,32.2,30.30,WNW,296,6.0,11.0,49,0.00,,,0.34,529.0,meteohub,2013-11-07 18:34:00,
2013-11-07 13:39:00,51.3,34.2,30.30,NW,320,5.0,11.0,52,0.00,,,0.34,520.0,meteohub,2013-11-07 18:39:00,
2013-11-07 13:44:00,51.6,34.5,30.30,WNW,283,4.0,10.0,52,0.00,,,0.34,515.0,meteohub,2013-11-07 18:44:00,
2013-11-07 13:49:00,51.1,33.1,30.30,WNW,290,3.0,11.0,50,0.00,,,0.34,503.0,meteohub,2013-11-07 18:49:00,
2013-11-07 13:54:00,51.1,31.6,30.30,NE,34,5.0,11.0,47,0.00,,,0.34,499.0,meteohub,2013-11-07 18:54:00,
2013-11-07 13:59:00,50.7,30.7,30.30,NNW,327,5.0,11.0,46,0.00,,,0.34,492.0,meteohub,2013-11-07 18:59:00,
2013-11-07 14:04:00,50.4,31.5,30.30,WNW,292,3.0,12.0,48,0.00,,,0.34,485.0,meteohub,2013-11-07 19:04:00,
2013-11-07 14:09:00,51.1,32.5,30.29,NNE,19,2.0,12.0,49,0.00,,,0.34,476.0,meteohub,2013-11-07 19:09:00,
2013-11-07 14:14:00,51.8,32.2,30.29,NW,308,2.0,11.0,47,0.00,,,0.34,466.0,meteohub,2013-11-07 19:14:00,
2013-11-07 14:19:00,51.4,30.7,30.29,WNW,300,2.0,11.0,45,0.00,,,0.34,459.0,meteohub,2013-11-07 19:19:00,
2013-11-07 14:24:00,51.1,31.6,30.29,NW,320,4.0,8.0,47,0.00,,,0.34,448.0,meteohub,2013-11-07 19:24:00,
2013-11-07 14:29:00,51.1,32.0,30.29,NW,319,5.0,11.0,48,0.00,,,0.34,445.0,meteohub,2013-11-07 19:29:00,
2013-11-07 14:34:00,51.4,32.4,30.29,West,259,8.0,11.0,48,0.00,,,0.34,441.0,meteohub,2013-11-07 19:34:00,
2013-11-07 14:40:00,51.6,32.5,30.29,NW,319,5.0,11.0,48,0.00,,,0.34,425.0,meteohub,2013-11-07 19:40:00,
2013-11-07 14:45:00,51.4,31.3,30.29,WNW,283,7.0,15.0,46,0.00,,,0.34,420.0,meteohub,2013-11-07 19:45:00,
2013-11-07 14:50:00,51.3,31.6,30.29,WSW,252,6.0,15.0,47,0.00,,,0.34,408.0,meteohub,2013-11-07 19:50:00,
2013-11-07 14:55:00,51.1,31.6,30.29,NNW,337,6.0,12.0,47,0.00,,,0.34,390.0,meteohub,2013-11-07 19:55:00,
2013-11-07 15:00:00,51.1,31.1,30.29,West,281,7.0,12.0,46,0.00,,,0.34,380.0,meteohub,2013-11-07 20:00:00,
2013-11-07 15:05:00,50.7,31.8,30.29,West,264,4.0,12.0,48,0.00,,,0.34,367.0,meteohub,2013-11-07 20:05:00,
2013-11-07 15:10:00,50.9,30.4,30.29,NNW,331,4.0,12.0,45,0.00,,,0.34,357.0,meteohub,2013-11-07 20:10:00,
2013-11-07 15:15:00,51.1,31.1,30.29,NW,313,9.0,11.0,46,0.00,,,0.34,343.0,meteohub,2013-11-07 20:15:00,
2013-11-07 15:20:00,50.7,30.2,30.29,NW,319,7.0,14.0,45,0.00,,,0.34,327.0,meteohub,2013-11-07 20:20:00,
2013-11-07 15:25:00,50.5,30.6,30.29,NW,314,5.0,14.0,46,0.00,,,0.34,332.0,meteohub,2013-11-07 20:25:00,
2013-11-07 15:30:00,50.5,30.6,30.29,West,269,10.0,14.0,46,0.00,,,0.34,341.0,meteohub,2013-11-07 20:30:00,
2013-11-07 15:35:00,50.9,31.5,30.29,WSW,253,6.0,13.0,47,0.00,,,0.34,325.0,meteohub,2013-11-07 20:35:00,
2013-11-07 15:41:00,50.7,31.3,30.29,NW,324,8.0,10.0,47,0.00,,,0.34,288.0,meteohub,2013-11-07 20:41:00,
2013-11-07 15:46:00,50.7,30.7,30.30,WNW,289,10.0,10.0,46,0.00,,,0.34,265.0,meteohub,2013-11-07 20:46:00,
2013-11-07 15:51:00,50.4,29.8,30.30,North,4,2.0,11.0,45,0.00,,,0.34,250.0,meteohub,2013-11-07 20:51:00,
2013-11-07 15:56:00,50.4,29.8,30.30,WSW,246,7.0,11.0,45,0.00,,,0.34,234.0,meteohub,2013-11-07 20:56:00,
2013-11-07 16:01:00,50.4,30.4,30.30,WNW,294,6.0,12.0,46,0.00,,,0.34,218.0,meteohub,2013-11-07 21:01:00,
2013-11-07 16:06:00,50.2,30.2,30.30,WNW,291,9.0,12.0,46,0.00,,,0.34,202.0,meteohub,2013-11-07 21:06:00,
2013-11-07 16:11:00,49.6,29.1,30.30,WNW,289,8.0,12.0,45,0.00,,,0.34,186.0,meteohub,2013-11-07 21:11:00,
2013-11-07 16:16:00,49.5,28.4,30.30,NW,322,7.0,11.0,44,0.00,,,0.34,167.0,meteohub,2013-11-07 21:16:00,
2013-11-07 16:21:00,49.3,29.3,30.30,WNW,296,5.0,11.0,46,0.00,,,0.34,148.0,meteohub,2013-11-07 21:21:00,
2013-11-07 16:27:00,49.1,29.7,30.30,WSW,246,5.0,14.0,47,0.00,,,0.34,132.0,meteohub,2013-11-07 21:27:00,
2013-11-07 16:32:00,49.1,30.2,30.30,WNW,297,6.0,14.0,48,0.00,,,0.34,114.0,meteohub,2013-11-07 21:32:00,
2013-11-07 16:37:00,48.7,29.8,30.30,North,357,3.0,11.0,48,0.00,,,0.34,102.0,meteohub,2013-11-07 21:37:00,
2013-11-07 16:42:00,48.7,29.8,30.30,WSW,254,3.0,11.0,48,0.00,,,0.34,86.0,meteohub,2013-11-07 21:42:00,
2013-11-07 16:47:00,48.6,30.2,30.31,NW,304,1.0,10.0,49,0.00,,,0.34,70.0,meteohub,2013-11-07 21:47:00,
2013-11-07 16:52:00,48.4,30.0,30.31,WNW,296,1.0,8.0,49,0.00,,,0.34,53.0,meteohub,2013-11-07 21:52:00,
2013-11-07 16:57:00,48.2,30.0,30.31,NW,317,4.0,8.0,49,0.00,,,0.34,35.0,meteohub,2013-11-07 21:57:00,
2013-11-07 17:02:00,48.0,29.8,30.31,WNW,285,7.0,8.0,49,0.00,,,0.34,19.0,meteohub,2013-11-07 22:02:00,
2013-11-07 17:07:00,47.7,30.0,30.31,NW,306,8.0,8.0,50,0.00,,,0.34,16.0,meteohub,2013-11-07 22:07:00,
2013-11-07 17:12:00,47.1,29.5,30.31,WNW,293,3.0,9.0,50,0.00,,,0.34,14.0,meteohub,2013-11-07 22:12:00,
2013-11-07 17:17:00,46.8,29.7,30.31,WNW,299,3.0,9.0,51,0.00,,,0.34,12.0,meteohub,2013-11-07 22:17:00,
2013-11-07 17:22:00,46.2,29.5,30.31,WNW,300,2.0,9.0,52,0.00,,,0.34,11.0,meteohub,2013-11-07 22:22:00,
2013-11-07 17:27:00,45.9,29.3,30.31,West,267,4.0,7.0,52,0.00,,,0.34,7.0,meteohub,2013-11-07 22:27:00,
2013-11-07 17:32:00,45.7,29.5,30.31,WNW,286,4.0,5.0,53,0.00,,,0.34,5.0,meteohub,2013-11-07 22:32:00,
2013-11-07 17:37:00,45.3,30.0,30.31,WNW,297,2.0,5.0,55,0.00,,,0.34,0.0,meteohub,2013-11-07 22:37:00,
2013-11-07 17:42:00,45.0,30.2,30.31,West,281,1.0,5.0,56,0.00,,,0.34,0.0,meteohub,2013-11-07 22:42:00,
2013-11-07 17:47:00,44.4,30.2,30.31,WNW,302,0.0,5.0,57,0.00,,,0.34,0.0,meteohub,2013-11-07 22:47:00,
2013-11-07 17:52:00,44.1,30.2,30.31,WNW,292,1.0,5.0,58,0.00,,,0.34,0.0,meteohub,2013-11-07 22:52:00,
2013-11-07 17:57:00,43.7,30.4,30.32,WNW,291,1.0,5.0,59,0.00,,,0.34,0.0,meteohub,2013-11-07 22:57:00,
2013-11-07 18:02:00,43.3,30.4,30.32,WNW,291,1.0,5.0,60,0.00,,,0.34,0.0,meteohub,2013-11-07 23:02:00,
2013-11-07 18:07:00,43.0,30.0,30.32,WNW,291,0.0,3.0,60,0.00,,,0.34,0.0,meteohub,2013-11-07 23:07:00,
2013-11-07 18:12:00,42.6,31.3,30.32,WNW,291,0.0,3.0,64,0.00,,,0.34,0.0,meteohub,2013-11-07 23:12:00,
2013-11-07 18:18:00,42.1,31.5,30.33,WNW,291,0.0,2.0,66,0.00,,,0.34,0.0,meteohub,2013-11-07 23:18:00,
2013-11-07 18:23:00,41.4,31.6,30.33,WNW,291,0.0,1.0,68,0.00,,,0.34,0.0,meteohub,2013-11-07 23:23:00,
2013-11-07 18:28:00,40.8,31.5,30.33,WNW,291,0.0,1.0,69,0.00,,,0.34,0.0,meteohub,2013-11-07 23:28:00,
2013-11-07 18:33:00,40.3,31.3,30.33,WNW,291,0.0,1.0,70,0.00,,,0.34,0.0,meteohub,2013-11-07 23:33:00,
2013-11-07 18:38:00,39.7,31.8,30.33,WNW,291,0.0,1.0,73,0.00,,,0.34,0.0,meteohub,2013-11-07 23:38:00,
2013-11-07 18:43:00,39.2,31.6,30.33,WNW,291,0.0,1.0,74,0.00,,,0.34,0.0,meteohub,2013-11-07 23:43:00,
2013-11-07 18:48:00,38.7,31.8,30.33,WNW,291,0.0,1.0,76,0.00,,,0.34,0.0,meteohub,2013-11-07 23:48:00,
2013-11-07 18:53:00,38.1,31.6,30.34,WNW,291,0.0,0.0,77,0.00,,,0.34,0.0,meteohub,2013-11-07 23:53:00,
2013-11-07 18:58:00,37.8,31.5,30.34,WNW,291,0.0,0.0,78,0.00,,,0.34,0.0,meteohub,2013-11-07 23:58:00,
2013-11-07 19:03:00,37.4,31.8,30.34,WNW,291,0.0,0.0,80,0.00,,,0.34,0.0,meteohub,2013-11-08 00:03:00,
2013-11-07 19:09:00,37.0,31.5,30.34,WNW,291,0.0,0.0,80,0.00,,,0.00,0.0,meteohub,2013-11-08 00:09:00,
2013-11-07 19:14:00,36.7,31.6,30.34,WNW,291,0.0,0.0,82,0.00,,,0.00,0.0,meteohub,2013-11-08 00:14:00,
2013-11-07 19:19:00,36.3,31.3,30.34,WNW,291,0.0,0.0,82,0.00,,,0.00,0.0,meteohub,2013-11-08 00:19:00,
2013-11-07 19:24:00,36.0,31.3,30.35,WNW,291,0.0,0.0,83,0.00,,,0.00,0.0,meteohub,2013-11-08 00:24:00,
2013-11-07 19:29:00,35.8,31.5,30.35,WNW,291,0.0,0.0,84,0.00,,,0.00,0.0,meteohub,2013-11-08 00:29:00,
2013-11-07 19:34:00,35.4,31.1,30.35,WNW,291,0.0,0.0,84,0.00,,,0.00,0.0,meteohub,2013-11-08 00:34:00,
2013-11-07 19:39:00,35.1,30.9,30.35,WNW,291,0.0,0.0,85,0.00,,,0.00,0.0,meteohub,2013-11-08 00:39:00,
2013-11-07 19:44:00,34.9,30.9,30.35,WNW,291,0.0,0.0,85,0.00,,,0.00,0.0,meteohub,2013-11-08 00:44:00,
2013-11-07 19:49:00,34.5,30.6,30.35,WNW,291,0.0,0.0,85,0.00,,,0.00,0.0,meteohub,2013-11-08 00:49:00,
2013-11-07 19:54:00,34.3,30.6,30.35,WNW,291,0.0,0.0,86,0.00,,,0.00,0.0,meteohub,2013-11-08 00:54:00,
2013-11-07 19:59:00,34.2,30.4,30.35,WNW,291,0.0,0.0,86,0.00,,,0.00,0.0,meteohub,2013-11-08 00:59:00,
2013-11-07 20:04:00,33.8,30.0,30.35,WNW,291,0.0,0.0,86,0.00,,,0.00,0.0,meteohub,2013-11-08 01:04:00,
2013-11-07 20:10:00,33.6,29.8,30.35,WNW,291,0.0,0.0,86,0.00,,,0.00,0.0,meteohub,2013-11-08 01:10:00,
2013-11-07 20:15:00,33.4,30.2,30.35,WNW,291,0.0,0.0,88,0.00,,,0.00,0.0,meteohub,2013-11-08 01:15:00,
2013-11-07 20:20:00,33.3,30.0,30.36,WNW,291,0.0,0.0,88,0.00,,,0.00,0.0,meteohub,2013-11-08 01:20:00,
2013-11-07 20:25:00,33.1,29.8,30.36,WNW,291,0.0,0.0,88,0.00,,,0.00,0.0,meteohub,2013-11-08 01:25:00,
2013-11-07 20:30:00,32.9,30.0,30.36,WNW,291,0.0,0.0,89,0.00,,,0.00,0.0,meteohub,2013-11-08 01:30:00,
2013-11-07 20:35:00,32.7,29.8,30.36,WNW,291,0.0,0.0,89,0.00,,,0.00,0.0,meteohub,2013-11-08 01:35:00,
2013-11-07 20:40:00,32.7,30.2,30.37,WNW,291,0.0,1.0,90,0.00,,,0.00,0.0,meteohub,2013-11-08 01:40:00,
2013-11-07 20:45:00,32.5,29.7,30.37,WNW,291,0.0,1.0,89,0.00,,,0.00,0.0,meteohub,2013-11-08 01:45:00,
2013-11-07 20:50:00,32.4,29.5,30.37,WNW,291,0.0,1.0,89,0.00,,,0.00,0.0,meteohub,2013-11-08 01:50:00,
2013-11-07 20:55:00,32.4,29.8,30.36,WNW,291,0.0,1.0,90,0.00,,,0.00,0.0,meteohub,2013-11-08 01:55:00,
2013-11-07 21:01:00,32.2,29.7,30.37,WNW,291,0.0,0.0,90,0.00,,,0.00,0.0,meteohub,2013-11-08 02:01:00,
2013-11-07 21:06:00,32.2,29.7,30.36,WNW,291,0.0,1.0,90,0.00,,,0.00,0.0,meteohub,2013-11-08 02:06:00,
2013-11-07 21:11:00,31.8,29.3,30.36,WNW,291,0.0,1.0,90,0.00,,,0.00,0.0,meteohub,2013-11-08 02:11:00,
2013-11-07 21:16:00,31.8,29.5,30.36,WNW,291,0.0,1.0,91,0.00,,,0.00,0.0,meteohub,2013-11-08 02:16:00,
2013-11-07 21:21:00,31.8,29.5,30.36,WNW,291,0.0,1.0,91,0.00,,,0.00,0.0,meteohub,2013-11-08 02:21:00,
2013-11-07 21:26:00,31.8,29.5,30.36,WNW,291,0.0,1.0,91,0.00,,,0.00,0.0,meteohub,2013-11-08 02:26:00,
2013-11-07 21:31:00,31.6,29.3,30.37,WNW,291,0.0,0.0,91,0.00,,,0.00,0.0,meteohub,2013-11-08 02:31:00,
2013-11-07 21:36:00,31.6,29.3,30.36,WNW,291,0.0,0.0,91,0.00,,,0.00,0.0,meteohub,2013-11-08 02:36:00,
2013-11-07 21:41:00,31.6,29.3,30.36,WNW,291,0.0,0.0,91,0.00,,,0.00,0.0,meteohub,2013-11-08 02:41:00,
2013-11-07 21:47:00,31.5,29.1,30.37,WNW,291,0.0,0.0,91,0.00,,,0.00,0.0,meteohub,2013-11-08 02:47:00,
2013-11-07 21:52:00,31.5,29.1,30.37,WNW,291,0.0,0.0,91,0.00,,,0.00,0.0,meteohub,2013-11-08 02:52:00,
2013-11-07 21:57:00,31.3,28.9,30.37,WNW,291,0.0,0.0,91,0.00,,,0.00,0.0,meteohub,2013-11-08 02:57:00,
2013-11-07 22:02:00,31.3,28.9,30.37,WNW,291,0.0,0.0,91,0.00,,,0.00,0.0,meteohub,2013-11-08 03:02:00,
2013-11-07 22:07:00,30.9,28.6,30.37,WNW,291,0.0,0.0,91,0.00,,,0.00,0.0,meteohub,2013-11-08 03:07:00,
2013-11-07 22:12:00,30.9,28.9,30.37,WNW,291,0.0,0.0,92,0.00,,,0.00,0.0,meteohub,2013-11-08 03:12:00,
2013-11-07 22:17:00,30.9,28.9,30.37,WNW,291,0.0,0.0,92,0.00,,,0.00,0.0,meteohub,2013-11-08 03:17:00,
2013-11-07 22:22:00,30.7,28.8,30.37,WNW,291,0.0,0.0,92,0.00,,,0.00,0.0,meteohub,2013-11-08 03:22:00,
2013-11-07 22:27:00,30.7,28.8,30.37,WNW,291,0.0,0.0,92,0.00,,,0.00,0.0,meteohub,2013-11-08 03:27:00,
2013-11-07 22:32:00,30.7,28.8,30.37,WNW,291,0.0,0.0,92,0.00,,,0.00,0.0,meteohub,2013-11-08 03:32:00,
2013-11-07 22:37:00,30.6,28.6,30.37,WNW,291,0.0,0.0,92,0.00,,,0.00,0.0,meteohub,2013-11-08 03:37:00,
2013-11-07 22:42:00,30.7,28.9,30.37,WNW,291,0.0,0.0,93,0.00,,,0.00,0.0,meteohub,2013-11-08 03:42:00,
2013-11-07 22:47:00,30.7,28.9,30.37,WNW,291,0.0,0.0,93,0.00,,,0.00,0.0,meteohub,2013-11-08 03:47:00,
2013-11-07 22:52:00,30.6,28.6,30.37,WNW,291,0.0,0.0,92,0.00,,,0.00,0.0,meteohub,2013-11-08 03:52:00,
2013-11-07 22:57:00,30.6,28.6,30.37,WNW,291,0.0,0.0,92,0.00,,,0.00,0.0,meteohub,2013-11-08 03:57:00,
2013-11-07 23:03:00,30.4,28.4,30.37,WNW,291,0.0,0.0,92,0.00,,,0.00,0.0,meteohub,2013-11-08 04:03:00,
2013-11-07 23:08:00,30.4,28.4,30.37,WNW,291,0.0,1.0,92,0.00,,,0.00,0.0,meteohub,2013-11-08 04:08:00,
2013-11-07 23:13:00,30.4,28.4,30.37,WNW,291,0.0,1.0,92,0.00,,,0.00,0.0,meteohub,2013-11-08 04:13:00,
2013-11-07 23:18:00,30.2,28.4,30.38,WNW,291,0.0,1.0,93,0.00,,,0.00,0.0,meteohub,2013-11-08 04:18:00,
2013-11-07 23:23:00,30.0,28.2,30.38,WNW,291,0.0,1.0,93,0.00,,,0.00,0.0,meteohub,2013-11-08 04:23:00,
2013-11-07 23:28:00,30.0,28.2,30.38,WNW,291,0.0,0.0,93,0.00,,,0.00,0.0,meteohub,2013-11-08 04:28:00,
2013-11-07 23:33:00,30.0,28.2,30.37,WNW,291,0.0,0.0,93,0.00,,,0.00,0.0,meteohub,2013-11-08 04:33:00,
2013-11-07 23:39:00,29.8,28.0,30.37,WNW,291,0.0,0.0,93,0.00,,,0.00,0.0,meteohub,2013-11-08 04:39:00,
2013-11-07 23:44:00,29.8,28.0,30.37,WNW,291,0.0,0.0,93,0.00,,,0.00,0.0,meteohub,2013-11-08 04:44:00,
2013-11-07 23:49:00,29.8,28.0,30.37,WNW,291,0.0,1.0,93,0.00,,,0.00,0.0,meteohub,2013-11-08 04:49:00,
2013-11-07 23:54:00,29.7,27.9,30.37,WNW,291,0.0,1.0,93,0.00,,,0.00,0.0,meteohub,2013-11-08 04:54:00,
2013-11-07 23:59:00,29.8,28.4,30.37,WNW,291,0.0,1.0,94,0.00,,,0.00,0.0,meteohub,2013-11-08 04:59:00,